Location: *
(45.4590°N, 16.3650°E)
Time: 13:40:24
(UTC+00:00)

DELTA 2 R/B (1) - Pass Details

Date: 17 January 2020
Orbit: 791 x 802 km, 39.6° (Epoch: 17 February)

Event Time Altitude Azimuth Distance (km) Brightness Sun altitude
Rises 18:14:35 0° 239° (WSW) 3,290 7.7 -26.7°
Reaches altitude 10° 18:17:12 10° 232° (SW) 2,363 6.7 -27.2°
Enters shadow 18:21:41 37° 181° (S) 1,227 4.5 -28.0°
